Location: Brantley
(31.5822°N, 86.2569°W)
Time: 05:20:12
(UTC+00:00)

Vanguard 3 - Pass Details

Date: 24 February 2026
Orbit: 507 x 3205 km, 33.3° (Epoch: 5 March)

Event Time Altitude Azimuth Distance (km) Brightness Sun altitude
Rises 20:10:53 0° 252° (WSW) 6,897 12.6 38.3°
Reaches altitude 10° 20:15:56 10° 253° (WSW) 5,625 12.4 37.6°
Maximum altitude 20:31:54 87° 166° (SSE) 1,929 9.7 35.1°
Drops below altitude 10° 20:40:48 10° 78° (ENE) 3,333 9.9 33.6°
Sets 20:43:03 0° 78° (ENE) 4,034 10.3 33.3°
